Portada
METAR-TAF:

METAR-TAF

Aeroports :

Mudgee, Austràlia

latitud: 32-33-45S, longitud: 149-36-40E, altitud: 471 m

Observació

L'informe es va fer fa 30 minuts, a les 06:00 UTC
Vent 14 kt del Sud-Est
Temperatura 22°C
Humitat 57%
Pressió 1022 hPa
Visibilitat 10 km o més
Núvols disperses a una alçada de 3800 ft
Cel ennuvolat a una alçada de 5800 ft

METAR: YMDG 230600Z AUTO 13014KT 9999 // SCT038 BKN058 22/13 Q1022

Hora: 17:30 (06:30 UTC)


TAF: manca

Observacions i pronòstics meteorològics de més de 4000 aeroports (METAR i TAF).

Les estacions disponibles són els punts grocs i vermells al mapa.

Posi el ratolí al punt desitjat per veure el nom de l'estació.

Feu clic per veure les observacions i els pronòstics meteorològics.

Per canviar el mapa: feu clic els botons verds amb una creu de color negre per apropar; al botó verd amb un guió per allunyar la imatge; o en les fletxes verdes per a mapes adjacents.


METAR-TAF: